TimeCST,TemperatureF,Dew PointF,Humidity,Sea Level PressureIn,VisibilityMPH,Wind Direction,Wind SpeedMPH,Gust SpeedMPH,PrecipitationIn,Events,Conditions,WindDirDegrees,DateUTC
12:01 AM,68.0,68.0,100,29.96,6.0,West,6.9,-,N/A,Rain,Light Rain,280,2013-01-02 06:01:00
12:10 AM,68.0,68.0,100,29.97,8.0,WSW,5.8,-,N/A,,Light Drizzle,250,2013-01-02 06:10:00
12:12 AM,68.0,68.0,100,29.97,10.0,WSW,6.9,-,N/A,,Overcast,250,2013-01-02 06:12:00
12:28 AM,66.2,66.2,100,29.97,10.0,West,6.9,-,N/A,,Overcast,260,2013-01-02 06:28:00
12:50 AM,66.2,66.2,100,29.96,10.0,West,4.6,-,N/A,,Mostly Cloudy,270,2013-01-02 06:50:00
12:54 AM,66.2,66.2,100,29.96,10.0,WNW,4.6,-,N/A,,Mostly Cloudy,290,2013-01-02 06:54:00
12:55 AM,66.4,66.4,100,29.96,10.0,WNW,5.8,-,0.01,,Mostly Cloudy,300,2013-01-02 06:55:00
1:04 AM,66.2,66.2,100,29.96,10.0,NW,12.7,18.4,N/A,,Overcast,310,2013-01-02 07:04:00
1:39 AM,60.8,60.8,100,29.98,10.0,NNW,10.4,-,N/A,,Overcast,340,2013-01-02 07:39:00
1:51 AM,60.8,60.8,100,29.98,10.0,NNW,10.4,-,N/A,,Overcast,330,2013-01-02 07:51:00
1:53 AM,60.8,60.8,100,29.98,10.0,NNW,13.8,-,N/A,,Overcast,330,2013-01-02 07:53:00
1:55 AM,59.9,59.9,100,29.98,10.0,NNW,13.8,-,N/A,,Overcast,330,2013-01-02 07:55:00
2:05 AM,59.0,59.0,100,29.97,10.0,NNW,10.4,-,N/A,,Overcast,340,2013-01-02 08:05:00
2:12 AM,59.0,59.0,100,29.98,10.0,NNW,10.4,-,N/A,,Overcast,340,2013-01-02 08:12:00
2:55 AM,58.3,58.3,100,29.99,10.0,North,9.2,-,N/A,,Overcast,350,2013-01-02 08:55:00
3:00 AM,59.0,59.0,100,29.99,10.0,North,8.1,-,N/A,,Overcast,350,2013-01-02 09:00:00
3:34 AM,57.2,57.2,100,29.99,10.0,NNW,11.5,-,N/A,,Overcast,340,2013-01-02 09:34:00
3:53 AM,57.2,57.2,100,29.99,10.0,North,10.4,-,N/A,,Overcast,350,2013-01-02 09:53:00
3:55 AM,56.7,56.7,100,29.99,10.0,North,10.4,-,N/A,,Overcast,360,2013-01-02 09:55:00
4:58 AM,55.4,55.4,100,30.01,10.0,North,11.5,-,N/A,,Overcast,350,2013-01-02 10:58:00
5:49 AM,53.6,53.6,100,30.02,10.0,North,12.7,-,N/A,,Overcast,350,2013-01-02 11:49:00
5:55 AM,54.0,54.0,100,30.02,10.0,North,12.7,-,0.00,,Overcast,350,2013-01-02 11:55:00
6:13 AM,53.6,53.6,100,30.04,10.0,North,13.8,-,N/A,,Overcast,350,2013-01-02 12:13:00
6:22 AM,53.6,53.6,100,30.04,10.0,North,15.0,-,N/A,,Overcast,360,2013-01-02 12:22:00
6:31 AM,53.6,53.6,100,30.04,10.0,North,12.7,-,N/A,,Overcast,10,2013-01-02 12:31:00
6:55 AM,53.2,53.2,100,30.05,10.0,North,12.7,-,N/A,,Overcast,10,2013-01-02 12:55:00
7:09 AM,53.6,53.6,100,30.05,10.0,NNE,13.8,-,N/A,,Overcast,20,2013-01-02 13:09:00
7:10 AM,53.6,53.6,100,30.05,10.0,NNE,13.8,-,N/A,,Overcast,20,2013-01-02 13:10:00
7:23 AM,53.6,53.6,100,30.06,10.0,North,12.7,-,N/A,,Overcast,10,2013-01-02 13:23:00
7:55 AM,54.0,54.0,100,30.07,10.0,North,15.0,21.9,N/A,,Overcast,10,2013-01-02 13:55:00
8:11 AM,53.6,53.6,100,30.08,10.0,North,16.1,20.7,N/A,,Overcast,10,2013-01-02 14:11:00
8:55 AM,55.4,55.4,100,30.10,10.0,North,12.7,-,N/A,,Overcast,360,2013-01-02 14:55:00
9:55 AM,57.7,55.2,91,30.10,10.0,NNE,11.5,-,N/A,,Overcast,20,2013-01-02 15:55:00
10:15 AM,59.0,55.4,88,30.10,10.0,NNE,10.4,-,N/A,,Scattered Clouds,30,2013-01-02 16:15:00
10:17 AM,59.0,55.4,88,30.10,10.0,NNE,10.4,-,N/A,,Mostly Cloudy,20,2013-01-02 16:17:00
10:22 AM,60.8,55.4,82,30.10,10.0,NNE,9.2,-,N/A,,Mostly Cloudy,30,2013-01-02 16:22:00
10:55 AM,60.3,55.6,85,30.09,10.0,NNE,8.1,-,N/A,,Overcast,20,2013-01-02 16:55:00
11:07 AM,60.8,55.4,82,30.09,10.0,North,10.4,-,N/A,,Overcast,360,2013-01-02 17:07:00
11:55 AM,62.2,55.6,79,30.07,10.0,North,10.4,-,N/A,,Overcast,10,2013-01-02 17:55:00
12:55 PM,62.8,55.2,76,30.04,10.0,North,9.2,-,N/A,,Overcast,10,2013-01-02 18:55:00
1:17 PM,64.4,55.4,73,30.04,10.0,NNE,10.4,-,N/A,Rain,Light Rain,30,2013-01-02 19:17:00
1:19 PM,64.4,55.4,73,30.04,10.0,NNE,9.2,-,N/A,,Overcast,30,2013-01-02 19:19:00
1:55 PM,62.1,53.8,74,30.03,10.0,North,8.1,-,0.00,,Overcast,10,2013-01-02 19:55:00
2:55 PM,60.6,53.2,77,30.05,10.0,North,12.7,-,N/A,,Overcast,360,2013-01-02 20:55:00
3:30 PM,57.2,51.8,82,30.05,10.0,North,12.7,-,N/A,,Overcast,360,2013-01-02 21:30:00
3:32 PM,57.2,51.8,82,30.05,10.0,North,10.4,-,N/A,,Overcast,360,2013-01-02 21:32:00
3:43 PM,57.2,51.8,82,30.05,10.0,North,12.7,-,N/A,Rain,Light Rain,10,2013-01-02 21:43:00
3:55 PM,57.4,52.0,82,30.06,10.0,North,8.1,-,0.00,,Light Drizzle,360,2013-01-02 21:55:00
3:58 PM,57.2,51.8,82,30.07,10.0,North,10.4,-,N/A,,Overcast,360,2013-01-02 21:58:00
4:08 PM,57.2,51.8,82,30.06,10.0,North,10.4,-,N/A,Rain,Light Rain,10,2013-01-02 22:08:00
4:23 PM,57.2,51.8,82,30.07,10.0,North,9.2,-,N/A,,Overcast,360,2013-01-02 22:23:00
4:55 PM,56.8,51.6,83,30.08,10.0,North,8.1,-,0.00,,Overcast,10,2013-01-02 22:55:00
5:55 PM,55.9,51.3,84,30.12,10.0,NNW,10.4,-,N/A,,Overcast,340,2013-01-02 23:55:00
6:55 PM,53.4,49.6,87,30.12,10.0,North,12.7,-,N/A,,Overcast,360,2013-01-03 00:55:00
7:55 PM,52.3,48.9,88,30.13,10.0,North,12.7,-,N/A,,Overcast,360,2013-01-03 01:55:00
8:55 PM,51.1,47.7,88,30.12,10.0,NNE,15.0,-,N/A,,Overcast,20,2013-01-03 02:55:00
9:55 PM,50.5,47.5,89,30.14,10.0,North,18.4,-,N/A,,Overcast,10,2013-01-03 03:55:00
10:55 PM,49.5,46.8,90,30.15,10.0,North,13.8,-,N/A,,Overcast,10,2013-01-03 04:55:00
11:55 PM,48.9,45.9,89,30.16,10.0,North,12.7,-,N/A,,Overcast,360,2013-01-03 05:55:00
11:59 PM,48.2,46.4,93,30.15,10.0,North,12.7,-,N/A,,Light Drizzle,10,2013-01-03 05:59:00